| time (UTC) | temp F | wind direction | speed knots | gust knots | rain 1hr in | rain 24hr in | rain mn in | humidity % | barometer mb |
| 20260906060023 | 69 | 180 | 0.0 | 0.0 | 0.00 | 0.03 | 0.00 | 96 | 1012.5 |
| 20260906054528 | 69 | 154 | 0.0 | 0.0 | 0.00 | 0.03 | 0.00 | 96 | 1012.6 |
| 20260906053036 | 69 | 92 | 0.0 | 1.7 | 0.00 | 0.03 | 0.00 | 95 | 1012.6 |
| 20260906051531 | 69 | 153 | 0.0 | 0.0 | 0.00 | 0.03 | 0.00 | 96 | 1012.9 |
| 20260906050007 | 69 | 153 | 0.0 | 0.0 | 0.00 | 0.03 | 0.00 | 95 | 1013.1 |
| 20260906044508 | 69 | 153 | 0.0 | 0.0 | 0.00 | 0.03 | 0.00 | 95 | 1013.2 |
| 20260906043008 | 69 | 153 | 0.0 | 0.0 | 0.00 | 0.03 | 0.00 | 95 | 1013.0 |
| 20260906041504 | 69 | 153 | 0.0 | 0.0 | 0.00 | 0.03 | 0.00 | 95 | 1013.3 |
| 20260906040023 | 70 | 153 | 0.0 | 0.0 | 0.00 | 0.03 | 0.00 | 95 | 1013.5 |
| 20260906034517 | 70 | 153 | 0.0 | 0.0 | 0.00 | 0.03 | 0.03 | 95 | 1013.4 |
| 20260906033013 | 70 | 153 | 0.0 | 0.0 | 0.00 | 0.03 | 0.03 | 95 | 1013.4 |
| 20260906031510 | 70 | 153 | 0.0 | 0.0 | 0.00 | 0.03 | 0.03 | 95 | 1013.3 |
| 20260906030006 | 70 | 153 | 0.0 | 0.0 | 0.00 | 0.03 | 0.03 | 95 | 1013.4 |
| 20260906024503 | 71 | 153 | 0.0 | 0.0 | 0.00 | 0.03 | 0.03 | 94 | 1013.2 |
| 20260906023025 | 71 | 153 | 0.0 | 0.0 | 0.00 | 0.03 | 0.03 | 94 | 1013.0 |
| 20260906021535 | 71 | 167 | 0.0 | 0.0 | 0.00 | 0.03 | 0.03 | 94 | 1013.0 |
| 20260906020020 | 72 | 167 | 0.0 | 0.0 | 0.00 | 0.03 | 0.03 | 94 | 1013.1 |
| 20260906014519 | 72 | 167 | 0.0 | 0.0 | 0.00 | 0.03 | 0.03 | 94 | 1013.0 |
| 20260906013026 | 73 | 167 | 0.0 | 0.0 | 0.00 | 0.03 | 0.03 | 93 | 1012.8 |
| 20260906011510 | 73 | 167 | 0.0 | 0.0 | 0.00 | 0.03 | 0.03 | 92 | 1012.6 |
| 20260906010004 | 74 | 167 | 0.0 | 0.0 | 0.00 | 0.03 | 0.03 | 92 | 1012.4 |
| 20260906004527 | 74 | 167 | 0.0 | 0.0 | 0.00 | 0.03 | 0.03 | 91 | 1012.3 |
| 20260906003025 | 75 | 167 | 0.0 | 0.0 | 0.00 | 0.03 | 0.03 | 90 | 1012.3 |
| 20260906001521 | 76 | 167 | 0.0 | 0.0 | 0.00 | 0.03 | 0.03 | 89 | 1012.1 |
| 20260906000022 | 77 | 167 | 0.0 | 0.0 | 0.00 | 0.03 | 0.03 | 87 | 1011.9 |
| 20260905234512 | 78 | 167 | 0.0 | 0.9 | 0.00 | 0.03 | 0.03 | 87 | 1011.8 |
| 20260905233017 | 79 | 142 | 0.0 | 0.0 | 0.00 | 0.03 | 0.03 | 83 | 1011.7 |
| 20260905231506 | 79 | 142 | 0.0 | 0.0 | 0.00 | 0.03 | 0.03 | 81 | 1011.6 |
| 20260905230029 | 80 | 142 | 0.0 | 0.9 | 0.00 | 0.03 | 0.03 | 78 | 1011.7 |
| 20260905224533 | 81 | 360 | 0.0 | 0.0 | 0.00 | 0.03 | 0.03 | 76 | 1011.5 |
| 20260905223033 | 82 | 360 | 0.0 | 0.0 | 0.00 | 0.03 | 0.03 | 74 | 1011.6 |
| 20260905221517 | 83 | 360 | 0.0 | 0.9 | 0.00 | 0.03 | 0.03 | 72 | 1011.6 |
| 20260905220012 | 83 | 5 | 0.0 | 2.6 | 0.00 | 0.03 | 0.03 | 70 | 1011.6 |
| 20260905214510 | 82 | 11 | 0.0 | 1.7 | 0.00 | 0.03 | 0.03 | 75 | 1012.0 |
| 20260905213008 | 81 | 15 | 0.9 | 2.6 | 0.00 | 0.03 | 0.03 | 75 | 1012.4 |
| 20260905211541 | 80 | 23 | 0.9 | 2.6 | 0.00 | 0.03 | 0.03 | 77 | 1012.1 |
| 20260905210029 | 78 | 20 | 0.0 | 1.7 | 0.00 | 0.03 | 0.03 | 83 | 1012.1 |
| 20260905204524 | 76 | 313 | 0.0 | 1.7 | 0.00 | 0.03 | 0.03 | 84 | 1012.3 |
| 20260905203034 | 73 | 123 | 0.0 | 1.7 | 0.00 | 0.03 | 0.03 | 90 | 1012.7 |
| 20260905201519 | 73 | 154 | 0.0 | 2.6 | 0.00 | 0.03 | 0.03 | 88 | 1012.6 |
| 20260905200035 | 73 | 221 | 0.0 | 0.0 | 0.00 | 0.03 | 0.03 | 90 | 1012.8 |
| 20260905194536 | 73 | 221 | 0.0 | 0.9 | 0.00 | 0.03 | 0.03 | 88 | 1013.1 |
| 20260905193032 | 73 | 164 | 0.9 | 3.5 | 0.00 | 0.03 | 0.03 | 88 | 1012.9 |
| 20260905191541 | 73 | 74 | 0.0 | 4.3 | 0.00 | 0.03 | 0.03 | 86 | 1013.5 |
| 20260905190043 | 73 | 319 | 0.9 | 2.6 | 0.03 | 0.03 | 0.03 | 90 | 1012.0 |
| 20260905184522 | 74 | 146 | 0.0 | 1.7 | 0.03 | 0.03 | 0.03 | 89 | 1012.5 |
| 20260905183023 | 75 | 150 | 1.7 | 4.3 | 0.03 | 0.03 | 0.03 | 83 | 1012.8 |
| 20260905181534 | 81 | 162 | 1.7 | 7.0 | 0.03 | 0.03 | 0.03 | 68 | 1012.3 |
| 20260905180031 | 90 | 342 | 7.8 | 17.4 | 0.00 | 0.00 | 0.00 | 54 | 1013.5 |
| 20260905174530 | 92 | 307 | 4.3 | 9.6 | 0.00 | 0.00 | 0.00 | 52 | 1013.2 |
| 20260905173027 | 93 | 319 | 3.5 | 4.3 | 0.00 | 0.00 | 0.00 | 56 | 1013.6 |
| 20260905171530 | 93 | 19 | 2.6 | 5.2 | 0.00 | 0.00 | 0.00 | 58 | 1013.6 |
| 20260905170021 | 92 | 295 | 0.9 | 7.8 | 0.00 | 0.00 | 0.00 | 56 | 1013.7 |
| 20260905164516 | 92 | 335 | 2.6 | 7.0 | 0.00 | 0.00 | 0.00 | 56 | 1013.8 |
| 20260905163015 | 92 | 304 | 0.9 | 3.5 | 0.00 | 0.00 | 0.00 | 58 | 1014.1 |
| 20260905161511 | 91 | 244 | 0.0 | 7.8 | 0.00 | 0.00 | 0.00 | 58 | 1014.2 |
| 20260905160015 | 92 | 350 | 1.7 | 4.3 | 0.00 | 0.00 | 0.00 | 55 | 1014.5 |
| 20260905154531 | 92 | 329 | 0.0 | 1.7 | 0.00 | 0.00 | 0.00 | 58 | 1014.3 |
| 20260905153053 | 91 | 339 | 0.9 | 3.5 | 0.00 | 0.00 | 0.00 | 62 | 1014.5 |
| 20260905151523 | 89 | 21 | 2.6 | 3.5 | 0.00 | 0.00 | 0.00 | 63 | 1014.3 |
| 20260905150017 | 88 | 330 | 1.7 | 2.6 | 0.00 | 0.00 | 0.00 | 68 | 1014.4 |
| 20260905144522 | 86 | 176 | 0.0 | 1.7 | 0.00 | 0.00 | 0.00 | 71 | 1014.3 |
| 20260905143012 | 85 | 329 | 1.7 | 2.6 | 0.00 | 0.00 | 0.00 | 74 | 1014.4 |
| 20260905141509 | 84 | 332 | 0.0 | 1.7 | 0.00 | 0.00 | 0.00 | 75 | 1014.4 |
| 20260905140031 | 82 | 318 | 0.0 | 2.6 | 0.00 | 0.00 | 0.00 | 79 | 1014.4 |
| 20260905134527 | 81 | 331 | 0.0 | 1.7 | 0.00 | 0.00 | 0.00 | 83 | 1014.6 |
| 20260905133027 | 79 | 294 | 0.0 | 2.6 | 0.00 | 0.00 | 0.00 | 87 | 1014.5 |
| 20260905131535 | 77 | 316 | 1.7 | 2.6 | 0.00 | 0.00 | 0.00 | 90 | 1014.5 |
| 20260905130019 | 74 | 254 | 0.0 | 0.0 | 0.00 | 0.00 | 0.00 | 95 | 1014.6 |
| 20260905124532 | 73 | 135 | 0.0 | 0.9 | 0.00 | 0.00 | 0.00 | 97 | 1014.7 |
| 20260905123014 | 72 | 93 | 0.0 | 0.0 | 0.00 | 0.00 | 0.00 | 97 | 1014.6 |
| 20260905121532 | 71 | 92 | 0.0 | 0.0 | 0.00 | 0.00 | 0.00 | 97 | 1014.6 |
| 20260905120033 | 70 | 93 | 0.0 | 0.0 | 0.00 | 0.00 | 0.00 | 96 | 1014.5 |
| 20260905114528 | 70 | 93 | 0.0 | 0.0 | 0.00 | 0.00 | 0.00 | 96 | 1014.5 |
| 20260905113028 | 70 | 93 | 0.0 | 1.7 | 0.00 | 0.00 | 0.00 | 96 | 1014.2 |
| 20260905111521 | 70 | 167 | 0.0 | 0.0 | 0.00 | 0.00 | 0.00 | 96 | 1014.0 |
| 20260905110017 | 70 | 167 | 0.0 | 0.0 | 0.00 | 0.00 | 0.00 | 96 | 1013.7 |
| 20260905104510 | 70 | 167 | 0.0 | 0.0 | 0.00 | 0.00 | 0.00 | 96 | 1013.7 |
| 20260905103037 | 70 | 167 | 0.0 | 0.0 | 0.00 | 0.00 | 0.00 | 96 | 1013.6 |
| 20260905101533 | 71 | 167 | 0.0 | 0.0 | 0.00 | 0.00 | 0.00 | 96 | 1013.5 |
| 20260905100029 | 71 | 167 | 0.0 | 0.0 | 0.00 | 0.00 | 0.00 | 96 | 1013.5 |
| 20260905094527 | 71 | 167 | 0.0 | 0.0 | 0.00 | 0.00 | 0.00 | 96 | 1013.4 |
| 20260905093039 | 71 | 167 | 0.0 | 0.0 | 0.00 | 0.00 | 0.00 | 96 | 1013.5 |
| 20260905091518 | 71 | 167 | 0.0 | 0.0 | 0.00 | 0.00 | 0.00 | 96 | 1013.4 |
| 20260905090014 | 71 | 121 | 0.0 | 0.0 | 0.00 | 0.00 | 0.00 | 96 | 1013.5 |
| 20260905084534 | 71 | 121 | 0.0 | 0.0 | 0.00 | 0.00 | 0.00 | 96 | 1013.4 |
| 20260905083034 | 71 | 121 | 0.0 | 0.0 | 0.00 | 0.00 | 0.00 | 96 | 1013.7 |
| 20260905081531 | 71 | 121 | 0.0 | 0.0 | 0.00 | 0.00 | 0.00 | 95 | 1013.7 |
| 20260905080039 | 72 | 121 | 0.0 | 0.0 | 0.00 | 0.00 | 0.00 | 96 | 1013.9 |
| 20260905074524 | 72 | 121 | 0.0 | 0.0 | 0.00 | 0.00 | 0.00 | 95 | 1013.9 |
| 20260905073009 | 72 | 121 | 0.0 | 0.0 | 0.00 | 0.00 | 0.00 | 95 | 1014.1 |
| 20260905071507 | 72 | 121 | 0.0 | 0.0 | 0.00 | 0.00 | 0.00 | 95 | 1014.1 |
| 20260905070014 | 72 | 121 | 0.0 | 0.0 | 0.00 | 0.00 | 0.00 | 95 | 1014.5 |
| 20260905064508 | 72 | 121 | 0.0 | 0.0 | 0.00 | 0.00 | 0.00 | 95 | 1014.5 |
| 20260905063012 | 73 | 121 | 0.0 | 0.0 | 0.00 | 0.00 | 0.00 | 95 | 1014.7 |
| 20260905061512 | 73 | 121 | 0.0 | 0.0 | 0.00 | 0.00 | 0.00 | 95 | 1014.8 |